Regional Weather Roundup
Issued by NWS Sioux Falls, SD

Home | Current Version | Previous Version | Text Only | Print | Product List | Glossary On
Versions: 1 2 3 4 5 6 7 8 9 10 11 12 13 14 15 16 17 18 19 20 21 22 23 24 25 26 27 28 29 30 31 32 33 34 35 36 37 38 39 40 41 42 43 44 45 46 47 48 49 50
347
ASUS43 KFSD 211310
RWRFSD

WEATHER ROUNDUP FOR SE SOUTH DAKOTA/SW MINNESOTA/NW IOWA
NATIONAL WEATHER SERVICE SIOUX FALLS SD
800 AM CDT THU MAY 21 2015

NOTE: "FAIR" INDICATES FEW OR NO CLOUDS BELOW 12,000 FEET WITH NO
SIGNIFICANT WEATHER AND OR OBSTRUCTIONS TO VISIBILITY.


SDZ038>040-050-052>070-211400-
SOUTHEAST SOUTH DAKOTA

CITY           SKY/WX    TMP DP  RH WIND       PRES   REMARKS
BROOKINGS      SUNNY     52  36  54 W13       30.18S
CHAMBERLAIN    SUNNY     45  37  75 W9        30.26S
HURON          SUNNY     50  39  66 W8        30.21R
MADISON        FAIR      48  32  53 NW16G24   30.20R
MITCHELL       SUNNY     49  40  71 W15       30.23R
SIOUX FALLS    SUNNY     51  36  56 NW12      30.20R
WINNER         FAIR      47  36  65 W9        30.28R
YANKTON        SUNNY     48  37  66 W14       30.23F
$$

MNZ071-072-080-081-089-090-097-098-211400-
SOUTHWEST MINNESOTA

CITY           SKY/WX    TMP DP  RH WIND       PRES   REMARKS
FAIRMONT       MOSUNNY   54  34  47 W14       30.11S
JACKSON        SUNNY     52  32  46 W15       30.13S
LUVERNE        SUNNY     50  34  53 NW13      30.18R
MARSHALL       SUNNY     57  32  38 NW20      30.11R
MONTEVIDEO     SUNNY     55  39  54 N12       30.11R
REDWOOD FALLS  SUNNY     55  37  50 W14       30.09R
TRACY          SUNNY     57  34  41 W15G22    30.12S
WINDOM         SUNNY     54  36  50 W13       30.12S
WORTHINGTON    SUNNY     52  34  50 W18G24    30.15F
$$

IAZ001>003-012>014-020>022-031-032-NEZ013-014-SDZ071-211400-
NORTHWEST IOWA

CITY           SKY/WX    TMP DP  RH WIND       PRES   REMARKS
CHEROKEE       SUNNY     46  43  88 W8        30.21R
DENISON        SUNNY     45  45 100 SW5       30.22R
ESTHERVILLE    SUNNY     52  35  52 W22       30.13S
LE MARS        SUNNY     48  43  81 W7        30.24R
ORANGE CITY    SUNNY     45  41  87 W9        30.20S
SHELDON        SUNNY     48  39  71 W8        30.18S
SIOUX CITY     SUNNY     50  40  68 W9        30.24R
SPENCER        SUNNY     50  40  68 W12       30.17S
STORM LAKE     SUNNY     45  41  87 W16       30.20S
$$

ABBREVIATIONS USED IN REMARKS
   TC - TEMPERATURE IN CELSIUS
  WCI - WIND CHILL INDEX
   HX - HEAT INDEX
  VSB - VISIBILITY




USA.gov is the U.S. government's official web portal to all federal, state and local government web resources and services.